Regional Weather Roundup
Issued by NWS

Home | Current Version | Previous Version | Graphics & Text | Print | Product List | Glossary On
Versions: 1 2 3 4 5 6 7 8 9 10 11 12 13 14 15 16 17 18 19 20 21 22 23 24 25 26 27 28 29 30 31 32 33 34 35 36 37 38 39 40 41 42 43 44 45 46 47 48 49 50
000
ASUS45 KBOU 151107
RWRCO

WEATHER ROUNDUP FOR COLORADO
NATIONAL WEATHER SERVICE DENVER/BOULDER CO
500 AM MDT MON SEP 15 2014

NOTE: "FAIR" INDICATES FEW OR NO CLOUDS BELOW 12000 FEET WITH NO
SIGNIFICANT WEATHER AND/OR OBSTRUCTIONS TO VISIBILITY.

COZ001>005-013-030-031-151200-
...NORTHWEST COLORADO...

CITY           SKY/WX    TMP DP  RH WIND       PRES   REMARKS
CRAIG          MOCLDY    41  37  86 CALM      30.28R
HAYDEN         CLEAR     46  36  66 E10       30.29R
MEEKER         CLEAR     44  39  82 NE5       30.29R
MOUNT WERNER   NOT AVBL
STEAMBOAT SPGS CLEAR     43  36  75 W3        30.32R
WALDEN         CLEAR     34  30  86 SE7       30.38R WCI  28
$$

COZ006>008-011-151200-
...WEST CENTRAL VALLEYS...

CITY           SKY/WX    TMP DP  RH WIND       PRES   REMARKS
GRAND JUNCTION CLEAR     57  40  52 E3        30.15R
MONTROSE       CLEAR     53  42  66 SE7       30.24R
EAGLE          CLEAR     45  37  76 CALM      30.36R
RIFLE          CLEAR     48  39  71 E3        30.24R
DELTA          CLEAR     55  40  56 NE6       30.21R
NUCLA          CLEAR     54  39  58 E7        30.27R
$$

COZ017>023-064>068-151200-
...SOUTHWEST COLORADO...

CITY           SKY/WX    TMP DP  RH WIND       PRES   REMARKS
DURANGO        PTCLDY    52  41  66 N3        30.29S
CORTEZ         CLEAR     49  42  77 E3        30.23S
PAGOSA SPRINGS NOT AVBL
TELLURIDE      CLEAR     48  37  66 SE5       30.45R
WOLF CREEK PAS PTCLDY    41  41 100 SW8       30.62S
$$

COZ009-010-012-014-032>034-037-058>063-151200-
...CENTRAL COLORADO...

CITY           SKY/WX    TMP DP  RH WIND       PRES   REMARKS
ASPEN          CLEAR     45  34  65 S7        30.37R
BUENA VISTA    CLEAR     45  33  62 CALM      30.40R
COPPER MTN     CLEAR     45  28  53 W12       30.63R
BERTHOUD PASS  FAIR      37  36  93 NW13      30.66R
COTTONWOOD PAS CLEAR     54  27  35 W13       30.49R
GUNNISON       CLEAR     37  30  75 CALM      30.42R
KREMMLING      CLEAR     36  32  87 CALM      30.39R
LEADVILLE      CLEAR     33  29  85 NE6       30.49R WCI  28
MONARCH PASS   CLEAR     43  30  61 W12       30.73R
SALIDA         CLEAR     49  34  56 W3        30.45R
SUNLIGHT       CLEAR     54  32  43 CALM      30.57R
WILKERSON PASS NOT AVBL
$$

COZ069>075-151200-
...SAN LUIS VALLEY/SANGRE DE CRISTO MOUNTAINS...

CITY           SKY/WX    TMP DP  RH WIND       PRES   REMARKS
ALAMOSA        PTCLDY    44  41  89 E6        30.35R
LA VETA PASS   NOT AVBL
SAGUACHE       NOT AVBL
$$

COZ035-036-038>040-151200-
...NORTHERN COLORADO FRONT RANGE...

CITY           SKY/WX    TMP DP  RH WIND       PRES   REMARKS
DENVER INTL AP PTCLDY    50  45  83 NW8       30.30R
DMNS CITY PARK   N/A     54  45  70 N5        30.31R
AURORA         NOT AVBL
FRONT RANGE AP CLOUDY    52  48  87 NW6       30.31R
ERIE MUNI ARPT MOCLDY    49  46  89 CALM      30.30R
BOULDER MUN AP CLEAR     52  48  87 CALM      30.29R
CENTENNIAL     MOCLDY    53  47  79 NW7       30.32R
BROOMFIELD     PTCLDY    52  46  82 CALM      30.32R
FORT COLLINS   CLEAR     48  43  81 SE9       30.29R
LONGMONT       CLEAR     50  48  90 CALM      30.31R
$$

COZ041-046-047-076>085-087-088-151200-
...PIKES PEAK/PALMER DIVIDE AND SOUTHERN FOOTHILLS...

CITY           SKY/WX    TMP DP  RH WIND       PRES   REMARKS
COLO. SPRINGS  CLEAR     54  44  69 N21       30.24R
A. F. ACADEMY  NOT AVBL
ELLICOTT       NOT AVBL
FALCON         CLEAR     49  47  91 N20G28    30.29R
FORT CARSON    NOT AVBL
LIMON          CLOUDY    50  50 100 NW17G25   30.25R FOG
MONUMENT HILL  CLOUDY    46  46 100 NW12      30.34R FOG
TRINIDAD       CLEAR     59  49  69 W10       30.20R
$$

COZ042>045-048>051-090-091-151200-
...NORTHEAST COLORADO...

CITY           SKY/WX    TMP DP  RH WIND       PRES   REMARKS
GREELEY ARPT   CLEAR     46  39  76 SE7       30.29R
AKRON          FOG       49  48  97 N12       30.24R VSB 1/2
BURLINGTON     FOG       55  54  96 N15G24    30.16R VSB 1/4
WRAY           CLOUDY   N/A N/A N/A N15       30.20R
STERLING       CLOUDY    52  48  87 N9        30.24R
HOLYOKE        CLOUDY    54  50  87 N16       30.21R
FORT MORGAN    CLOUDY    48  44  86 NE9       30.28R
$$

COZ086-089-092>099-151200-
...SOUTHEAST COLORADO...

CITY           SKY/WX    TMP DP  RH WIND       PRES   REMARKS
PUEBLO         CLEAR     61  38  42 W7        30.14R
LA JUNTA       CLEAR     53  51  93 NW6       30.11R
LAMAR          CLEAR     51  49  92 CALM      30.04R
SPRINGFIELD      N/A     52  52 100 SW5       30.08S
$$



USA.gov is the U.S. government's official web portal to all federal, state and local government web resources and services.